Location: ?
(35.3544°N, 139.4507°E)
Time: 13:08:21
(UTC+00:00)

Cosmos 2322 Rocket - Pass Details

Date: 03 August 2024
Orbit: 830 x 851 km, 71.0° (Epoch: 11 September)

Event Time Altitude Azimuth Distance (km) Brightness Sun altitude
Exits shadow 18:00:05 13° 292° (WNW) 2,255 4.2 -20.5°
Maximum altitude 18:01:26 14° 307° (NW) 2,196 4.2 -20.3°
Drops below altitude 10° 18:04:18 10° 338° (NNW) 2,474 4.8 -19.9°
Sets 18:08:06 0° 3° (N) 3,417 6.0 -19.3°
